TimeMST,TemperatureF,Dew PointF,Humidity,Sea Level PressureIn,VisibilityMPH,Wind Direction,Wind SpeedMPH,Gust SpeedMPH,PrecipitationIn,Events,Conditions,WindDirDegrees,DateUTC
12:53 AM,32.0,23.0,69,30.11,10.0,SSE,9.2,-,N/A,,Clear,150,2013-11-09 07:53:00
1:53 AM,32.0,23.0,69,30.11,10.0,SSE,5.8,-,N/A,,Clear,160,2013-11-09 08:53:00
2:53 AM,30.0,23.0,75,30.12,10.0,SE,6.9,-,N/A,,Clear,140,2013-11-09 09:53:00
3:53 AM,28.0,21.9,78,30.14,10.0,SE,8.1,-,N/A,,Clear,140,2013-11-09 10:53:00
4:53 AM,30.0,23.0,75,30.17,10.0,SSE,10.4,-,N/A,,Clear,160,2013-11-09 11:53:00
5:53 AM,28.9,21.9,75,30.20,10.0,SSE,6.9,-,N/A,,Clear,150,2013-11-09 12:53:00
6:53 AM,30.0,21.9,72,30.22,10.0,South,9.2,-,N/A,,Clear,170,2013-11-09 13:53:00
7:53 AM,34.0,24.1,67,30.25,10.0,South,5.8,-,N/A,,Clear,170,2013-11-09 14:53:00
8:53 AM,39.9,23.0,51,30.24,10.0,Calm,Calm,-,N/A,,Clear,0,2013-11-09 15:53:00
9:53 AM,46.0,23.0,40,30.22,10.0,Calm,Calm,-,N/A,,Clear,0,2013-11-09 16:53:00
10:53 AM,50.0,27.0,41,30.20,10.0,NNW,5.8,-,N/A,,Clear,330,2013-11-09 17:53:00
11:53 AM,54.0,26.1,34,30.17,10.0,WNW,3.5,-,N/A,,Clear,300,2013-11-09 18:53:00
12:53 PM,55.9,25.0,30,30.15,10.0,Variable,4.6,-,N/A,,Clear,0,2013-11-09 19:53:00
1:53 PM,59.0,24.1,26,30.13,10.0,NW,3.5,-,N/A,,Clear,320,2013-11-09 20:53:00
2:53 PM,60.1,24.1,25,30.13,10.0,North,6.9,-,N/A,,Clear,360,2013-11-09 21:53:00
3:53 PM,60.1,21.9,23,30.14,10.0,NNW,5.8,-,N/A,,Clear,330,2013-11-09 22:53:00
4:53 PM,54.0,25.0,33,30.17,10.0,NNW,5.8,-,N/A,,Clear,330,2013-11-09 23:53:00
5:53 PM,45.0,25.0,46,30.22,10.0,SSE,3.5,-,N/A,,Clear,160,2013-11-10 00:53:00
6:53 PM,43.0,25.0,49,30.25,10.0,SSE,8.1,-,N/A,,Clear,150,2013-11-10 01:53:00
7:53 PM,39.0,26.1,60,30.26,10.0,SE,8.1,-,N/A,,Clear,130,2013-11-10 02:53:00
8:53 PM,37.0,26.1,65,30.25,10.0,SE,8.1,-,N/A,,Clear,130,2013-11-10 03:53:00
9:53 PM,37.0,25.0,62,30.24,10.0,SSE,10.4,-,N/A,,Clear,150,2013-11-10 04:53:00
10:53 PM,37.0,25.0,62,30.23,10.0,SSE,11.5,-,N/A,,Clear,150,2013-11-10 05:53:00
11:53 PM,35.1,24.1,64,30.23,10.0,South,9.2,-,N/A,,Clear,170,2013-11-10 06:53:00